Location: Ariel
(45.9570°N, 122.5700°W)
Time: 20:58:39
(UTC-07:00)

Vanguard 3 - Pass Details

Date: 01 September 2019
Orbit: 508 x 3263 km, 33.4° (Epoch: 14 September)

Event Time Altitude Azimuth Distance (km) Brightness Sun altitude
Rises 16:18:03 0° 248° (WSW) 6,539 12.8 34.8°
Reaches altitude 10° 16:23:17 10° 242° (WSW) 5,127 12.7 34.0°
Maximum altitude 16:35:22 39° 181° (S) 2,333 10.1 32.1°
Drops below altitude 10° 16:42:37 10° 116° (ESE) 3,088 9.9 31.0°
Sets 16:45:00 0° 107° (ESE) 3,764 10.2 30.6°
